Powrót do katalogu

COSMOS 1263

AktywnyNawigacjaPO
NORAD 12388·PAYLOAD·🇷🇺 Russia

Wystrzelony Apr 9, 1981 z Plesetsk Cosmodrome

Loading…

Następne Przeloty (najbliższe 24 godziny)

TLE

ŚwieżeSource: Space-Track

Epoka: Sep 14, 2026, 22:01 UTC

1 12388U 81033A   26257.91780069  .00003124  00000-0  17370-3 0  9990
2 12388  82.8579 140.1763 0573480 174.5889 186.1882 14.30749632284258

Śledź COSMOS 1263 w czasie rzeczywistym z AllMySat

Download on the App Store